Regional Weather Roundup
Issued by NWS Cleveland, OH

Home | Current Version | Previous Version | Graphics & Text | Print | Product List | Glossary On
Versions: 1 2 3 4 5 6 7 8 9 10 11 12 13 14 15 16 17 18 19 20 21 22 23 24 25 26 27 28 29 30 31 32 33 34 35 36 37 38 39 40 41 42 43 44 45 46 47 48 49 50
000
ASUS41 KCLE 060902
RWRCLE
OHIO REGIONAL WEATHER ROUNDUP
NATIONAL WEATHER SERVICE CLEVELAND, OH
500 AM EDT WED MAY 06 2015

NOTE: "FAIR" INDICATES FEW OR NO CLOUDS BELOW 12,000 FEET WITH NO
SIGNIFICANT WEATHER AND/OR OBSTRUCTIONS TO VISIBILITY.

OHZ001>008-015>018-024>027-034-035-043-044-061000-
   NORTHWEST OHIO

CITY           SKY/WX    TMP DP  RH WIND       PRES   REMARKS
DEFIANCE       FOG       53  52  96 E5        30.23R VSB 1/4
FINDLAY        FOG       54  52  93 E6        30.20F VSB 1/2
TOLEDO EXPRESS FOG       51  51 100 E5        30.22S VSB 1
TOLEDO EXEC    FOG       51  49  92 NE5       30.23F VSB 1
LIMA           FOG       54  54 100 E6        30.21S VSB 1/4
$$

OHZ009>014-019>023-028>033-038-089-061000-
   NORTHEAST OHIO

CITY           SKY/WX    TMP DP  RH WIND       PRES   REMARKS
CLE-HOPKINS    CLOUDY    52  51  97 CALM      30.25S FOG
CLE-LAKEFRONT  CLOUDY    52  50  93 NE6       30.22F FOG
CUY CO. ARPT   NOT AVBL
LORAIN-ELYRIA  FOG       51  51 100 CALM      30.23S VSB 3/4
ASHTABULA      RAIN      54  53  97 CALM      30.23F FOG
AKRON-CANTON   FOG       58  55  90 E5        30.22S VSB 1
WOOSTER        FOG       55  54  96 CALM      30.22S VSB 3/4
MANSFIELD      FOG       56  56 100 NE3       30.22R VSB 1/4
YOUNGSTOWN     FOG       57  57 100 E3        30.22S VSB 1
$$

OHZ042-051>053-060>062-070>072-077>081-061000-
  SOUTHWEST OHIO

CITY           SKY/WX    TMP DP  RH WIND       PRES   REMARKS
CINC-COVINGTON CLEAR     60  54  80 CALM      30.20S
CINC-LUNKEN    CLEAR     54  54 100 CALM      30.21S FOG
HAMILTON       CLEAR     55  53  93 CALM      30.21S
DAYTON         CLEAR     58  56  93 CALM      30.21S FOG
WRIGHT-PAT AFB NOT AVBL
DAYTON GENERAL CLEAR     61  53  75 CALM      30.20S
WILMINGTON     CLEAR     60  52  74 SW3       30.20F
$$

OHZ036-037-039>041-045>050-054>059-063>069-073>076-082>088-061000-
  CENTRAL AND SOUTHEAST OHIO

CITY           SKY/WX    TMP DP  RH WIND       PRES   REMARKS
COLUMBUS       CLEAR     56  54  93 CALM      30.20R
OSU AIRPORT    CLEAR     55  53  93 CALM      30.20S FOG
BOLTON FIELD   NOT AVBL
RICKENBACK AFB NOT AVBL
NEWARK         FOG       55  53  93 CALM      30.21R VSB 1/2
MARION         CLOUDY    58  55  90 N3        30.21S FOG
LANCASTER      CLEAR     54  51  90 S3        30.21R
ZANESVILLE     FOG       55  53  93 CALM      30.21R VSB 1/2
NEW PHILLY     FOG       62  59  90 CALM      30.22S VSB 1
$$


USA.gov is the U.S. government's official web portal to all federal, state and local government web resources and services.